Back to catalog

THOR ABLESTAR DEB

AliveLEO
NORAD 334·DEBRIS·🇺🇸 United States

Launched Jun 29, 1961 from Cape Canaveral Space Force Station

Loading…

Next Passes (next 24 hours)

TLE

FreshSource: Space-Track

Epoch: Sep 14, 2026, 11:13 UTC

1 00334U 61015DL  26257.46748284 -.00000019  00000-0  44025-4 0  9998
2 00334  66.9257 326.7756 0075174  33.8139 326.7702 13.91758106308485

Track THOR ABLESTAR DEB in real time with AllMySat

Download on the App Store